Theta_e
340 339 341 334 338 341 340 339 339 338 338 341 338 341 341 341 339 340 341 339 340 335 339 336 337 339 339 338 337 332 327 327 335 337 333 328 329 330 333 335 335 334 337
338 343 338 337 341 339 339 336 335 339 339 339 332 333 335 339 341 341 341 341 340 329 336 331 336 339 339 338 337 334 326 326 330 335 332 331 330 331 330 336 333 340 335
340 341 336 338 342 341 338 334 339 336 336 328 338 340 342 338 328 328 328 328 329 327 331 329 337 339 339 339 337 336 332 331 332 340 342 341 342 337 338 334 332 330 332
343 343 345 342 342 339 336 330 333 334 337 334 342 343 332 330 330 327 325 325 327 328 330 335 338 338 337 338 338 338 336 336 337 336 337 336 335 336 337 339 340 337 328
342 342 342 342 340 339 334 328 332 331 329 332 335 333 335 336 335 333 332 331 332 335 338 339 338 336 337 341 341 341 340 336 340 341 341 341 342 342 337 337 340 339 340
339 342 338 337 339 343 336 335 331 328 326 331 333 332 333 334 334 335 335 334 335 335 335 336 337 340 341 341 341 341 341 342 338 340 341 342 341 341 343 341 338 339 339
334 335 334 334 333 332 334 337 329 326 326 330 330 329 330 332 332 333 337 340 341 341 338 339 341 340 340 340 340 341 341 341 342 343 343 343 343 342 340 342 342 340 339
334 341 344 334 328 331 334 338 329 325 328 330 328 329 332 338 341 342 340 340 341 340 340 338 337 341 340 341 342 340 341 341 343 342 341 340 340 340 339 338 340 341 340
333 334 333 337 327 328 333 331 329 328 328 328 331 340 342 342 341 340 340 340 338 339 340 340 341 341 342 344 340 338 340 339 339 340 343 341 336 339 337 339 337 338 340
334 333 335 332 327 328 330 329 330 328 329 337 342 342 342 341 340 339 340 339 338 338 338 338 338 339 341 343 343 342 343 342 343 342 339 337 336 335 335 340 341 339 337
337 334 332 333 328 329 328 328 328 332 340 342 338 337 337 338 336 338 338 338 337 338 338 337 336 336 339 343 343 345 344 343 344 341 338 338 338 338 338 338 340 341 340
334 330 329 332 329 327 326 327 333 341 342 339 335 336 339 337 337 338 339 339 339 339 338 340 341 339 338 334 337 339 339 344 343 343 343 340 339 339 339 339 339 340 340
330 325 328 328 328 327 326 333 340 342 339 339 344 343 340 340 342 342 339 342 343 341 342 343 342 342 343 341 340 341 341 335 344 340 343 341 342 343 344 343 341 341 341
325 324 325 327 329 329 328 338 341 340 339 340 344 344 343 344 344 346 345 344 344 344 342 343 340 341 341 341 340 340 342 342 341 340 340 343 344 344 345 345 343 339 338
328 327 328 330 331 329 336 340 341 339 337 340 344 343 342 343 345 345 347 347 346 346 344 342 343 340 342 341 341 341 342 343 344 342 342 344 344 343 344 345 346 342 341
330 329 332 334 334 338 341 342 344 343 338 340 344 345 346 344 345 345 347 345 347 345 343 343 342 346 343 341 342 342 343 345 345 344 343 343 343 343 342 344 344 342 339
334 334 333 339 342 343 343 343 341 341 343 346 347 348 347 348 345 345 346 347 346 347 346 344 345 345 347 345 347 344 344 345 345 344 344 343 343 342 341 342 340 339 339
340 338 337 340 341 344 345 343 340 340 343 346 347 347 348 349 350 350 349 349 350 345 345 346 346 346 346 348 346 344 345 345 345 344 342 340 337 340 340 338 335 335 331
345 342 339 341 341 343 344 344 345 345 345 346 347 347 347 347 350 351 352 351 346 346 345 347 348 348 345 346 344 345 345 346 343 343 340 336 338 339 337 332 330 328 326
348 344 343 341 341 340 343 344 344 345 345 346 346 347 347 348 349 348 350 350 345 347 348 348 348 346 346 348 346 346 346 345 342 340 338 336 339 335 334 331 328 328 328
349 347 344 343 343 343 340 342 343 343 343 344 345 347 347 347 350 347 348 346 346 347 348 349 349 347 349 347 345 349 347 346 344 342 338 337 335 334 332 330 330 328 328
348 346 345 344 343 342 342 338 339 341 341 343 345 347 346 346 347 349 347 346 347 347 348 348 349 348 347 347 345 348 348 345 343 339 335 334 334 333 333 331 330 327 324
348 346 346 345 344 341 337 339 337 339 340 342 345 345 345 345 346 347 347 348 349 349 348 348 348 348 350 347 348 347 344 341 343 337 337 334 332 333 330 331 328 324 322
346 346 347 345 345 343 335 333 333 334 338 341 344 344 345 345 345 347 348 348 347 347 348 350 349 348 350 345 345 343 341 339 337 341 336 335 330 331 329 331 323 322 319
346 346 347 345 345 345 338 333 332 333 336 338 341 346 345 345 347 347 348 349 349 350 351 350 349 348 348 345 343 337 337 331 332 336 332 335 329 330 329 328 322 321 318
346 346 347 345 346 346 343 339 335 330 335 339 346 347 345 346 347 348 348 346 349 351 350 349 351 350 349 344 337 328 328 333 333 331 330 332 331 329 330 329 322 322 318
Wind_Speed
14 15 14 13 12 11 10 11 11 12 12 11 10 11 10 11 10 9 9 8 7 7 8 9 7 5 5 4 3 2 3 4 5 4 3 3 3 4 4 3 3 3 3
15 15 13 12 10 10 9 9 11 11 10 9 9 11 9 9 8 8 8 7 4 6 7 8 6 4 4 4 3 1 1 3 4 3 3 3 4 3 3 4 3 3 4
14 14 13 10 9 8 8 8 10 11 10 11 11 11 10 9 7 6 6 5 5 6 6 6 2 2 4 5 4 1 1 1 3 5 4 4 4 5 4 5 5 4 5
13 13 11 9 8 8 7 8 8 9 10 10 11 9 9 9 9 8 7 7 6 6 6 3 1 3 4 5 5 3 1 2 2 3 3 2 3 4 5 6 6 6 6
14 13 11 10 9 8 8 8 10 9 9 10 9 9 10 10 10 9 8 7 5 3 1 0 2 3 5 6 6 7 5 4 5 5 5 5 6 6 6 7 9 9 9
13 12 11 10 9 8 8 10 9 9 9 10 9 9 8 7 7 7 6 4 2 2 3 4 4 4 6 7 7 5 6 6 6 7 8 8 9 9 10 9 10 12 11
14 13 11 9 9 8 9 9 9 9 10 10 8 8 8 7 7 6 6 4 5 5 5 6 4 5 6 7 8 8 6 7 9 10 11 12 12 10 11 13 12 13 12
13 12 10 9 9 10 9 9 9 10 10 9 8 8 8 8 6 4 5 5 8 9 9 4 3 5 6 8 9 7 8 9 10 12 13 13 15 12 10 12 14 14 14
12 11 10 10 10 10 9 10 10 10 10 9 8 8 7 5 4 6 6 6 8 8 10 8 4 4 6 6 6 5 4 6 9 11 12 12 13 14 13 13 13 13 14
12 11 11 10 9 10 10 10 10 10 10 9 7 6 6 8 8 8 7 6 7 10 10 11 11 9 5 5 6 6 7 8 9 8 8 9 9 10 12 12 13 15 15
13 12 12 10 10 10 10 11 11 12 11 8 8 11 11 10 8 9 10 8 9 11 11 11 10 9 7 6 7 7 8 9 8 8 10 11 11 13 13 14 15 17 17
15 14 14 11 11 10 10 11 12 13 10 8 8 10 11 12 10 8 10 10 10 9 10 11 12 11 11 9 9 9 10 10 9 9 12 12 12 15 15 16 16 16 18
14 15 15 14 12 11 11 12 13 12 11 8 7 10 10 11 12 12 9 11 10 10 10 11 11 12 13 12 12 12 12 9 10 12 12 10 11 14 15 15 14 14 17
15 15 15 14 13 12 12 12 12 11 8 4 5 6 7 9 13 13 12 11 9 13 15 12 12 13 14 12 14 14 12 10 10 13 13 13 13 15 15 16 14 13 12
16 16 15 14 13 14 13 12 9 9 3 3 4 5 6 7 7 10 12 12 10 12 17 14 13 12 16 15 17 16 12 9 9 9 10 12 14 16 17 18 16 14 17
15 17 17 17 15 15 14 10 7 6 4 5 4 5 7 7 7 10 11 13 14 15 17 17 16 13 16 17 15 14 11 9 6 7 9 13 13 13 14 13 11 15 20
14 17 17 18 16 14 12 8 8 6 7 5 4 5 5 8 7 9 11 12 14 13 15 14 16 16 16 17 17 18 14 10 10 12 13 14 14 13 10 11 14 15 13
15 15 18 17 15 13 9 8 9 8 6 1 2 3 6 6 6 8 11 12 13 13 14 15 16 17 19 18 17 14 11 14 12 12 13 15 16 13 11 10 10 10 11
16 15 15 16 15 13 11 11 9 9 7 3 1 5 6 7 10 11 10 12 14 16 16 17 19 19 19 16 16 13 7 8 12 10 13 15 13 10 8 10 11 12 14
19 17 15 15 14 15 14 14 12 10 8 6 3 6 5 6 9 10 10 11 13 16 18 20 19 18 17 15 14 10 6 8 8 8 11 13 9 8 7 7 10 14 14
21 21 18 15 16 16 17 17 15 13 10 8 4 4 4 7 8 10 11 11 13 14 17 20 21 20 15 15 12 7 5 6 8 11 12 8 7 8 5 6 9 11 13
23 21 21 18 16 17 17 17 16 14 13 10 7 5 5 5 8 9 10 12 14 16 17 18 18 18 15 12 11 8 4 5 6 7 9 7 5 4 3 6 9 10 12
25 24 23 20 16 15 15 17 17 17 16 13 10 8 7 5 6 8 11 13 15 15 15 17 17 16 14 13 10 7 5 5 5 4 3 3 4 2 4 7 7 10 14
27 25 25 22 18 16 15 17 17 17 16 15 12 10 6 7 6 8 10 13 12 10 12 16 16 13 12 12 9 7 5 6 4 3 4 3 5 5 4 4 7 11 14
29 26 26 25 20 17 17 16 16 17 16 15 12 9 7 6 5 4 7 11 14 12 13 15 13 11 10 9 8 5 4 5 5 3 5 5 8 9 7 6 7 11 14
29 29 29 28 23 19 18 18 17 17 17 16 13 10 8 5 3 5 9 12 12 13 14 13 11 12 9 10 8 7 4 2 4 4 5 6 8 10 10 7 8 10 12
Wind_Direction
147 149 143 141 126 113 106 100 103 109 114 119 124 119 122 127 129 121 126 124 124 129 133 138 115 98 83 70 82 123 205 200 189 192 183 179 151 151 150 164 158 168 180
146 145 147 138 131 124 115 110 115 114 113 114 114 118 119 124 122 120 122 127 147 142 153 150 128 99 68 48 65 65 141 186 181 170 185 172 163 161 181 182 199 191 198
145 140 140 141 133 121 110 106 109 111 109 116 112 111 108 107 120 133 142 144 136 137 141 143 115 57 34 26 35 51 26 184 184 183 195 189 185 172 189 185 191 204 218
149 149 146 145 139 129 111 109 114 116 112 118 107 110 108 111 107 106 113 116 116 118 124 135 63 1 349 345 341 347 259 242 239 218 205 203 213 221 216 221 230 221 221
147 145 146 142 137 124 119 121 125 119 123 126 115 111 106 100 97 97 98 102 113 115 120 272 306 325 332 338 331 318 319 263 252 251 268 266 257 250 248 233 237 240 233
146 140 144 145 137 138 128 119 128 126 130 134 124 112 106 102 97 90 79 65 31 358 340 327 328 340 341 337 325 312 301 291 270 260 260 265 262 258 253 251 245 233 237
145 142 144 145 141 138 133 132 125 127 128 128 117 109 104 97 88 75 60 28 356 340 334 305 298 319 311 309 306 304 289 281 274 276 282 279 275 270 268 260 255 246 241
142 141 141 140 139 139 136 134 125 122 126 127 113 100 91 83 79 70 48 19 6 338 329 265 269 275 300 322 319 288 280 289 285 274 278 295 273 263 267 268 252 248 247
145 140 144 142 139 140 135 136 130 128 129 122 114 107 99 84 55 46 40 40 66 45 53 80 40 349 343 6 30 8 294 298 306 281 276 282 279 264 271 275 257 256 256
147 145 147 144 140 142 144 143 135 133 125 122 107 81 63 62 61 62 70 76 34 34 45 45 36 31 21 324 322 336 324 314 306 297 290 287 285 275 266 260 265 264 260
152 151 150 145 143 149 150 143 140 127 122 109 88 80 68 55 72 79 78 70 47 37 34 30 26 17 12 10 358 348 335 328 325 311 295 291 292 285 278 274 273 263 256
160 155 154 155 151 153 150 149 138 130 119 112 90 62 52 56 66 69 58 43 24 17 8 3 0 5 2 346 342 332 330 331 334 318 302 293 293 292 290 287 286 282 267
162 159 155 157 158 157 156 151 141 128 123 100 59 61 61 53 42 34 23 29 16 5 355 357 3 11 8 1 347 333 326 310 305 312 312 294 294 301 304 301 298 283 267
164 163 162 162 160 162 160 154 142 137 134 79 54 56 41 36 40 38 43 40 37 18 22 9 9 17 10 353 345 348 339 334 321 302 294 294 287 284 292 289 284 279 278
165 164 164 163 159 157 159 155 149 153 159 110 71 71 43 34 35 34 32 24 19 11 15 15 10 6 1 359 343 338 336 332 321 319 302 303 300 299 301 297 289 290 301
165 164 161 155 151 153 160 164 171 162 160 140 115 58 26 23 27 24 20 18 17 12 11 10 8 0 356 351 347 351 355 346 346 340 309 307 312 310 304 312 300 287 294
164 165 166 164 160 157 161 176 197 181 149 130 95 44 7 34 27 18 14 15 3 7 2 6 2 2 355 351 358 9 17 17 5 350 346 353 348 338 327 312 310 314 324
174 171 175 176 174 175 177 177 181 184 180 199 29 29 17 2 340 353 1 5 6 4 9 5 359 359 359 358 354 355 354 356 355 355 354 353 355 346 352 5 21 34 40
188 180 182 189 187 188 186 178 182 193 208 229 310 360 355 356 346 344 351 359 7 9 2 356 356 355 356 356 351 351 348 353 1 359 358 356 356 11 21 35 43 41 35
205 199 192 193 190 194 198 196 200 201 213 227 274 343 338 348 351 1 360 356 4 1 358 353 351 354 354 356 358 346 328 344 344 352 7 2 9 19 35 57 49 31 20
215 213 208 203 197 200 203 206 213 218 224 230 256 331 330 337 330 356 3 4 359 352 351 347 348 349 352 356 4 349 323 312 356 2 17 20 33 36 28 48 43 22 14
224 218 216 213 211 214 213 215 219 222 227 226 237 272 299 322 328 329 346 343 337 335 337 339 341 339 347 352 355 343 318 311 329 353 6 10 49 20 19 12 13 11 4
227 222 221 217 215 220 223 226 227 229 233 230 241 261 274 297 320 336 342 340 333 323 325 331 341 344 349 354 351 339 333 338 310 327 344 16 22 10 330 333 347 352 353
230 231 227 223 220 220 221 228 234 233 227 224 242 261 256 277 298 329 338 347 352 345 331 330 339 349 359 1 352 342 329 318 323 289 315 316 295 281 299 301 333 348 356
233 232 224 223 221 221 221 225 230 230 227 231 235 244 244 258 306 322 341 345 350 356 343 336 352 1 13 12 10 359 344 344 340 305 305 295 281 276 282 294 328 342 351
234 234 222 219 220 220 222 224 229 226 223 222 223 227 229 248 277 300 326 334 344 352 346 344 0 9 13 16 17 19 17 354 324 326 307 288 275 289 283 284 308 327 348